Location: Milton
(43.5183°N, 79.8775°W)
Time: 21:56:09
(UTC+00:00)

ESTCUBE 1 - Pass Details

Date: 10 April 2023
Orbit: 640 x 654 km, 97.9° (Epoch: 28 May)

Event Time Altitude Azimuth Distance (km) Brightness Sun altitude
Exits shadow 03:38:58 28° 324° (NW) 1,244 ? -33.7°
Drops below altitude 10° 03:41:13 10° 338° (NNW) 2,071 ? -33.9°
Sets 03:43:29 0° 343° (NNW) 2,985 ? -34.1°
